[[{"header":{"parameterUnit":"m.s-1","parameterCategory":1,"la1":30.2991,"la2":30.254,"lo1":-89.0895,"lo2":-89.0444,"dy":0.0017,"dx":0.0017,"nx":28,"ny":28,"refTime":"2024-12-14T03:00:00:Z","depth":0,"parameterNumber":2,"parameterNumberName":"U-component_of_WINDS"},"data":[0,0,0,0,0,0,0,0,0,0,0,0,0,0,0,0,0,0,0,0,0,0,0,0,0,0,0,0,0,0,0,0,0,0,0,0,0,0,0,0,0,0,0,0,0,0,0,0,0,0,0,0,0,0,0,0,0,0,-5.9918,-5.9918,0,-5.9916,-5.9916,-5.9916,-5.9786,-5.9783,-5.978,-5.9776,-5.9772,-5.9775,-5.9778,0,0,0,0,0,0,0,0,0,0,0,0,0,-5.9811,-5.9813,-5.9918,-5.9918,-5.9918,-5.9916,-5.9916,-5.9916,-5.9787,-5.9783,-5.9779,-5.9775,-5.9771,-5.9774,-5.9778,0,0,0,0,0,0,0,0,0,0,0,0,0,-5.9838,-5.9814,-5.9918,-5.9854,-5.9848,-5.9916,-5.9916,-5.9916,-5.9788,-5.9783,-5.9778,-5.9773,-5.977,-5.9774,-5.9778,-5.9907,0,0,-5.9792,-5.9794,0,0,0,0,0,0,0,0,-5.9836,-5.9842,-5.9863,-5.9858,-5.9852,-5.9846,-5.9876,-5.9913,-5.9789,-5.9811,-5.9776,-5.977,-5.98,-5.9802,-5.9813,-5.9907,-5.9907,-5.9793,-5.9795,-5.9797,-5.9799,0,0,0,0,0,0,0,-5.9835,-5.9841,-5.9917,-5.9864,-5.9857,-5.9825,-5.9823,-5.9883,-5.9834,-5.9808,-5.9799,-5.9801,-5.9796,-5.9809,-5.9812,-5.9907,-5.9792,-5.9796,-5.9799,-5.9801,-6.0109,-6.0114,0,0,0,0,0,0,-5.9842,-5.9841,-5.9917,-5.9917,-5.9832,-5.9831,-5.9829,-5.9853,-5.9833,-5.9825,-5.9805,-5.9795,-5.9803,-5.9807,-5.9811,-5.996,-5.9797,-5.9801,-5.9804,-6.0103,-6.011,-6.0116,0,0,0,0,0,0,-5.984,-5.985,-5.9917,-5.9876,-5.9883,-5.9838,-5.9866,-5.9856,-5.9868,-5.983,-5.9821,-5.9826,-5.98,-5.9805,-5.9885,-5.9958,-5.9804,-5.9808,-6.0097,-6.0105,-6.0113,-6.0261,0,0,0,0,0,0,-5.9838,-5.985,-5.9898,-5.9878,-5.9885,-5.9991,-5.9871,-5.9859,-5.9876,-5.9863,-5.9848,-5.984,-5.9796,-5.9879,-5.9889,-5.9962,-5.9811,-6.009,-6.0101,-6.011,-6.0249,-6.0273,-6.0293,0,0,0,0,0,-5.9834,-5.9939,-5.9901,-5.9911,-5.9945,-5.9996,-6.0,-5.9947,-5.9883,-5.9931,-5.9907,-5.9841,-5.995,-5.9888,-5.9899,-5.9974,-6.0085,-6.0098,-6.011,-6.0239,-6.0268,-6.0293,0,0,0,0,0,0,-5.9966,-5.9935,-5.9893,-5.9994,-5.9999,-5.9974,-6.0032,-5.9979,-6.0001,-5.9988,-5.9921,-5.9919,-6.001,-6.0,-5.9932,-6.0099,-6.0006,-6.0021,-6.01,-6.0128,-6.015,-6.0148,-5.9815,0,0,0,0,0,-6.0007,-6.0052,-6.0022,-6.0115,-6.012,-6.0077,-6.0097,-6.0057,-6.0058,-6.0059,-6.0041,-6.0045,-6.008,-6.0104,-6.0134,-6.0249,-6.0243,-6.0306,-6.0328,-6.0347,-6.0359,-6.0419,-6.0446,-6.0156,-6.0156,-6.0156,0,0,-6.0092,-6.0081,-6.0112,-6.0141,-6.014,-6.0188,-6.0079,-6.0133,-6.0168,-6.0067,-6.0141,-6.013,-6.013,-6.0228,-6.027,-6.0222,-6.0439,-6.0362,-6.0377,-6.0379,-6.0435,-6.0462,-6.0487,-6.0165,-6.0163,-6.0162,0,0,-6.0269,-6.0267,-6.0343,-6.0346,-6.0347,-6.0318,-6.0337,-6.0322,-6.031,-6.0385,-6.031,-6.0351,-6.0413,-6.0416,-6.0426,-6.0612,-6.0551,-6.0624,-6.0738,-6.0798,-6.0821,-6.0841,-6.0905,-6.093,-6.0638,-6.0638,-6.0638,0,-6.0373,-6.0443,-6.0389,-6.0449,-6.0464,-6.0379,-6.0457,-6.0461,-6.0472,-6.0484,-6.0432,-6.0509,-6.0503,-6.0601,-6.0647,-6.0659,-6.0678,-6.0623,-6.0822,-6.0841,-6.0859,-6.092,-6.0945,-6.0647,-6.0646,-6.0645,-6.0644,0,-6.0571,-6.0621,-6.0683,-6.0697,-6.072,-6.0789,-6.0745,-6.0775,-6.0735,-6.0713,-6.0791,-6.0782,-6.0809,-6.083,-6.0791,-6.0924,-6.0894,-6.0834,-6.0738,-6.0896,-6.0952,-6.0975,-6.0659,-6.0656,-6.0653,-6.0651,0,0,-6.0824,-6.0813,-6.0836,-6.0842,-6.084,-6.0877,-6.0944,-6.0972,-6.0999,-6.1011,-6.1064,-6.1121,-6.1066,-6.1077,-6.1038,-6.1091,-6.1238,-6.1024,-6.1023,-6.1062,-6.1384,-6.1427,-6.1455,-6.1201,-6.1205,-6.1208,-6.1383,0,-6.0995,-6.1106,-6.1063,-6.1178,-6.1224,-6.1147,-6.1205,-6.121,-6.1192,-6.1228,-6.1209,-6.1249,-6.1174,-6.1181,-6.123,-6.121,-6.1301,-6.1197,-6.1248,-6.125,-6.1246,-6.1484,-6.1529,-6.1694,-6.1405,-6.1408,-6.1411,0,-6.1206,-6.1229,-6.135,-6.1343,-6.136,-6.1413,-6.1437,-6.1473,-6.1478,-6.1462,-6.1478,-6.1429,-6.1493,-6.1403,-6.1491,-6.1421,-6.1441,-6.1435,-6.144,-6.1438,-6.1337,-6.1487,-6.1745,-6.1769,-6.1445,-6.1443,-6.144,0,-6.1376,-6.1438,-6.1519,-6.1527,-6.1521,-6.156,-6.1559,-6.156,-6.1581,-6.1603,-6.1616,-6.1645,-6.166,-6.1684,-6.1644,-6.1582,-6.1738,-6.1644,-6.1724,-6.1725,-6.1756,-6.1754,-6.2018,-6.1776,-6.1775,-6.1775,-6.1774,0,-6.1568,-6.1644,-6.1595,-6.1644,-6.1728,-6.168,-6.1764,-6.1754,-6.1757,-6.1803,-6.1739,-6.1784,-6.173,-6.177,-6.1739,-6.1817,-6.1825,-6.1812,-6.1803,-6.1816,-6.1817,-6.1824,-6.181,-6.1781,-6.178,-6.1778,-6.1777,0,-6.1769,-6.174,-6.1822,-6.1812,-6.1812,-6.1874,-6.1864,-6.191,-6.1891,-6.195,-6.1961,-6.193,-6.1973,-6.1938,-6.198,-6.196,-6.2062,-6.2037,-6.206,-6.2051,-6.2133,-6.2125,-6.2407,-6.2441,-6.2181,-6.2184,-6.2186,0,-6.1891,-6.1949,-6.1946,-6.1974,-6.1978,-6.2022,-6.2044,-6.2001,-6.2026,-6.204,-6.2083,-6.2123,-6.215,-6.2225,-6.2205,-6.2238,-6.2212,-6.2309,-6.2215,-6.2228,-6.221,-6.2205,-6.221,-6.2326,-6.2329,-6.2332,-6.2334,0,-6.211,-6.2095,-6.213,-6.2162,-6.2191,-6.2213,-6.223,-6.2256,-6.2212,-6.2245,-6.229,-6.2312,-6.2358,-6.2397,-6.2424,-6.2422,-6.2371,-6.2365,-6.2384,-6.2396,-6.2405,-6.2399,-6.2107,-6.2356,-6.2354,-6.2352,-6.2351,-6.235,-6.2273,-6.2321,-6.2328,-6.237,-6.238,-6.2399,-6.2441,-6.243,-6.2467,-6.2501,-6.2474,-6.2528,-6.2535,-6.2566,-6.2572,-6.2614,-6.2573,-6.2603,-6.2609,-6.2616,-6.2627,-6.2403,-6.2619,-6.2618,-6.2618,-6.2617,-6.2617,0,-6.2486,-6.2489,-6.2529,-6.2557,-6.2591,-6.2544,-6.2562,-6.2593,-6.2642,-6.2654,-6.2685,-6.2738,-6.2777,-6.2764,-6.2799,-6.2835,-6.2812,-6.2845,-6.2839,-6.284,-6.2662,-6.264,-6.2863,-6.2863,-6.2863,-6.2863,-6.2863,-6.2863,-6.2601,-6.268,-6.2666,-6.275,-6.2751,-6.2805,-6.282,-6.2837,-6.2847,-6.291,-6.2943,-6.2935,-6.2937,-6.2973,-6.3007,-6.3002,-6.3016,-6.3058,-6.3044,-6.2877,-6.2852,-6.2829,-6.2808,-6.3062,-6.3063,-6.3218,-6.3219,-6.322]},{"header":{"parameterUnit":"m.s-1","parameterCategory":1,"la1":30.2991,"la2":30.254,"lo1":-89.0895,"lo2":-89.0444,"dy":0.0017,"dx":0.0017,"nx":28,"ny":28,"refTime":"2024-12-14T03:00:00:Z","depth":0,"parameterNumber":3,"parameterNumberName":"V-component_of_WINDS"},"data":[0,0,0,0,0,0,0,0,0,0,0,0,0,0,0,0,0,0,0,0,0,0,0,0,0,0,0,0,0,0,0,0,0,0,0,0,0,0,0,0,0,0,0,0,0,0,0,0,0,0,0,0,0,0,0,0,0,0,1.3727,1.3727,0,1.3669,1.3668,1.3667,1.365,1.3651,1.3651,1.3651,1.3585,1.3583,1.3581,0,0,0,0,0,0,0,0,0,0,0,0,0,1.3821,1.3819,1.3727,1.3727,1.3726,1.3669,1.3668,1.3667,1.365,1.3651,1.3651,1.3651,1.3586,1.3583,1.3581,0,0,0,0,0,0,0,0,0,0,0,0,0,1.3773,1.3819,1.3727,1.3711,1.3709,1.3669,1.3668,1.3667,1.365,1.3651,1.3651,1.3652,1.3586,1.3583,1.358,1.3551,0,0,1.3571,1.357,0,0,0,0,0,0,0,0,1.3776,1.3769,1.3714,1.3712,1.3709,1.3668,1.3677,1.3628,1.365,1.3672,1.3651,1.3652,1.3612,1.3606,1.3594,1.3548,1.3545,1.3571,1.3569,1.3567,1.3567,0,0,0,0,0,0,0,1.3779,1.3772,1.3704,1.3713,1.371,1.3705,1.3699,1.3667,1.364,1.367,1.3669,1.3663,1.361,1.3597,1.3593,1.3544,1.3571,1.3568,1.3566,1.3565,1.3474,1.3474,0,0,0,0,0,0,1.3786,1.3775,1.3706,1.3702,1.3745,1.3703,1.3696,1.368,1.364,1.3634,1.3662,1.3662,1.3602,1.3596,1.359,1.3555,1.3567,1.3565,1.3563,1.3475,1.3474,1.3474,0,0,0,0,0,0,1.3788,1.378,1.3708,1.3738,1.3729,1.3701,1.3683,1.3679,1.3666,1.3634,1.3628,1.3654,1.3602,1.3594,1.3562,1.3552,1.3563,1.356,1.3475,1.3475,1.3474,1.3483,0,0,0,0,0,0,1.3791,1.3781,1.377,1.3738,1.3727,1.3682,1.3683,1.3677,1.3661,1.366,1.3625,1.3619,1.3602,1.3567,1.3559,1.3548,1.3558,1.3476,1.3475,1.3474,1.3484,1.3483,1.3482,0,0,0,0,0,1.3794,1.3773,1.3769,1.3761,1.3713,1.3682,1.3675,1.3658,1.366,1.3649,1.3629,1.362,1.3555,1.3564,1.3555,1.3543,1.3477,1.3475,1.3474,1.3484,1.3483,1.3482,0,0,0,0,0,0,1.3801,1.3768,1.3764,1.3732,1.3711,1.3679,1.3664,1.3657,1.3632,1.3632,1.3609,1.3602,1.3571,1.3554,1.3564,1.3514,1.3516,1.3512,1.3526,1.3525,1.3524,1.3528,1.3555,0,0,0,0,0,1.38,1.3778,1.375,1.3725,1.3714,1.3691,1.3677,1.3666,1.3641,1.3631,1.3608,1.3583,1.3557,1.354,1.3514,1.3482,1.3474,1.3469,1.3469,1.3468,1.3465,1.3449,1.3446,1.347,1.347,1.347,0,0,1.3795,1.3774,1.3762,1.3726,1.3707,1.3685,1.3683,1.3659,1.3641,1.3626,1.3595,1.3578,1.3549,1.3517,1.3502,1.3502,1.3458,1.3467,1.3467,1.3464,1.3447,1.3445,1.3443,1.3469,1.3469,1.3469,0,0,1.3775,1.3758,1.3736,1.3718,1.3692,1.3677,1.3672,1.3643,1.3632,1.3601,1.359,1.3569,1.3524,1.3504,1.3488,1.3466,1.3457,1.3458,1.3453,1.3437,1.3435,1.3433,1.3426,1.3423,1.3455,1.3455,1.3455,0,1.3772,1.3739,1.3724,1.3702,1.3687,1.3676,1.3653,1.3636,1.3602,1.3591,1.3592,1.3538,1.3517,1.3482,1.3477,1.3464,1.3457,1.3461,1.3437,1.3435,1.3433,1.3426,1.3423,1.3456,1.3455,1.3455,1.3455,0,1.3737,1.3715,1.37,1.3671,1.3654,1.3631,1.3613,1.3597,1.3589,1.3574,1.3544,1.3519,1.3489,1.348,1.347,1.3443,1.3445,1.3442,1.3443,1.3432,1.3424,1.3421,1.3456,1.3456,1.3456,1.3456,0,0,1.3717,1.3683,1.3678,1.3665,1.3637,1.3619,1.3596,1.357,1.3557,1.3535,1.3515,1.348,1.3478,1.346,1.3448,1.3434,1.3419,1.3433,1.3432,1.3431,1.3389,1.3391,1.3388,1.3414,1.3413,1.3413,1.3392,0,1.3693,1.3655,1.3643,1.361,1.3589,1.3581,1.3561,1.3541,1.3528,1.3508,1.3492,1.3467,1.3467,1.3456,1.3442,1.3424,1.341,1.3425,1.3394,1.3393,1.3401,1.3384,1.3385,1.3367,1.3389,1.3388,1.3388,0,1.366,1.3641,1.3607,1.3584,1.3575,1.3558,1.3534,1.3515,1.3493,1.3484,1.3467,1.3457,1.3432,1.3437,1.3403,1.3414,1.3401,1.339,1.3389,1.3384,1.3389,1.3379,1.336,1.3357,1.3383,1.3383,1.3384,0,1.3649,1.3615,1.359,1.358,1.3552,1.3541,1.3529,1.3507,1.3493,1.3472,1.3463,1.3438,1.3424,1.3405,1.3389,1.3394,1.3357,1.3359,1.3348,1.3349,1.334,1.334,1.3318,1.3333,1.3333,1.3333,1.3333,0,1.3624,1.3603,1.3586,1.3571,1.3548,1.3535,1.3512,1.3499,1.3481,1.3463,1.3453,1.3436,1.3416,1.3396,1.3383,1.3358,1.3351,1.3343,1.3339,1.3343,1.3345,1.3333,1.3334,1.3332,1.3332,1.3332,1.3332,0,1.3607,1.3595,1.3568,1.3546,1.354,1.3524,1.3505,1.3489,1.3477,1.3455,1.3448,1.3428,1.3405,1.3388,1.3356,1.3347,1.332,1.3317,1.3329,1.3327,1.3317,1.3318,1.3286,1.3282,1.33,1.33,1.3299,0,1.3591,1.3576,1.3554,1.3543,1.3531,1.3512,1.3499,1.3486,1.3472,1.3448,1.3436,1.3413,1.3393,1.3356,1.3338,1.3314,1.331,1.3301,1.3306,1.3311,1.331,1.3311,1.331,1.3299,1.3299,1.3299,1.3299,0,1.3565,1.3561,1.3543,1.3524,1.3509,1.3493,1.3476,1.3467,1.3451,1.3436,1.3414,1.3399,1.3369,1.3346,1.3322,1.3307,1.33,1.3298,1.3294,1.3297,1.3305,1.3301,1.3326,1.3298,1.3298,1.3298,1.3298,1.3298,1.3548,1.3535,1.3519,1.35,1.3487,1.3472,1.3458,1.3446,1.3428,1.3404,1.3398,1.3375,1.3355,1.3322,1.3308,1.3289,1.3289,1.3283,1.3282,1.328,1.3281,1.331,1.3284,1.3284,1.3284,1.3284,1.3284,0,1.3521,1.3512,1.3495,1.3474,1.3459,1.3458,1.344,1.3427,1.3408,1.3392,1.3374,1.3349,1.3328,1.3309,1.3287,1.3275,1.3272,1.327,1.327,1.3267,1.3282,1.3288,1.3274,1.3274,1.3274,1.3274,1.3274,1.3274,1.3506,1.3484,1.3479,1.3451,1.344,1.342,1.341,1.3397,1.3384,1.3358,1.3341,1.333,1.3313,1.329,1.327,1.3266,1.3258,1.3257,1.3251,1.3265,1.3266,1.3267,1.3272,1.3255,1.3255,1.3237,1.3237,1.3237]}]]